Year,Month,Day,Hour,Minute,Value (Times are PST for temperature in C)
2011,11,18,00,00,0.30
2011,11,18,00,01,0.30
2011,11,18,00,02,0.30
2011,11,18,00,03,0.30
2011,11,18,00,04,0.30
2011,11,18,00,05,0.30
2011,11,18,00,06,0.30
2011,11,18,00,07,0.30
2011,11,18,00,08,0.30
2011,11,18,00,09,0.30
2011,11,18,00,10,0.30
2011,11,18,00,11,0.30
2011,11,18,00,12,0.30
2011,11,18,00,13,0.30
2011,11,18,00,14,0.30
2011,11,18,00,15,0.30
2011,11,18,00,16,0.30
2011,11,18,00,17,0.30
2011,11,18,00,18,0.30
2011,11,18,00,19,0.30
2011,11,18,00,20,0.30
2011,11,18,00,21,0.30
2011,11,18,00,22,0.30
2011,11,18,00,23,0.30
2011,11,18,00,24,0.30
2011,11,18,00,25,0.30
2011,11,18,00,26,0.30
2011,11,18,00,27,0.30
2011,11,18,00,28,0.30
2011,11,18,00,29,0.30
2011,11,18,00,30,0.20
2011,11,18,00,31,0.20
2011,11,18,00,32,0.20
2011,11,18,00,33,0.20
2011,11,18,00,34,0.20
2011,11,18,00,35,0.20
2011,11,18,00,36,0.20
2011,11,18,00,37,0.20
2011,11,18,00,38,0.20
2011,11,18,00,39,0.10
2011,11,18,00,40,0.10
2011,11,18,00,41,0.10
2011,11,18,00,42,0.10
2011,11,18,00,43,0.10
2011,11,18,00,44,0.10
2011,11,18,00,45,0.00
2011,11,18,00,46,0.00
2011,11,18,00,47,0.00
2011,11,18,00,48,0.00
2011,11,18,00,49,0.00
2011,11,18,00,50,0.00
2011,11,18,00,51,0.00
2011,11,18,00,52,0.00
2011,11,18,00,53,0.00
2011,11,18,00,54,0.00
2011,11,18,00,55,0.00
2011,11,18,00,56,0.00
2011,11,18,00,57,0.00
2011,11,18,00,58,0.00
2011,11,18,00,59,0.00
2011,11,18,01,00,0.00
2011,11,18,01,01,0.10
2011,11,18,01,02,0.10
2011,11,18,01,03,0.10
2011,11,18,01,04,0.00
2011,11,18,01,05,0.00
2011,11,18,01,06,0.00
2011,11,18,01,07,0.00
2011,11,18,01,08,0.00
2011,11,18,01,09,0.00
2011,11,18,01,10,0.00
2011,11,18,01,11,-0.10
2011,11,18,01,12,-0.10
2011,11,18,01,13,-0.10
2011,11,18,01,14,-0.10
2011,11,18,01,15,-0.10
2011,11,18,01,16,-0.10
2011,11,18,01,17,-0.20
2011,11,18,01,18,-0.20
2011,11,18,01,19,-0.20
2011,11,18,01,20,-0.20
2011,11,18,01,21,-0.20
2011,11,18,01,22,-0.20
2011,11,18,01,23,-0.30
2011,11,18,01,24,-0.30
2011,11,18,01,25,-0.30
2011,11,18,01,26,-0.30
2011,11,18,01,27,-0.30
2011,11,18,01,28,-0.30
2011,11,18,01,29,-0.30
2011,11,18,01,30,-0.30
2011,11,18,01,31,-0.30
2011,11,18,01,32,-0.30
2011,11,18,01,33,-0.30
2011,11,18,01,34,-0.30
2011,11,18,01,35,-0.40
2011,11,18,01,36,-0.40
2011,11,18,01,37,-0.40
2011,11,18,01,38,-0.40
2011,11,18,01,39,-0.40
2011,11,18,01,40,-0.50
2011,11,18,01,41,-0.50
2011,11,18,01,42,-0.60
2011,11,18,01,43,-0.60
2011,11,18,01,44,-0.60
2011,11,18,01,45,-0.60
2011,11,18,01,46,-0.60
2011,11,18,01,47,-0.60
2011,11,18,01,48,-0.70
2011,11,18,01,49,-0.70
2011,11,18,01,50,-0.70
2011,11,18,01,51,-0.70
2011,11,18,01,52,-0.70
2011,11,18,01,53,-0.70
2011,11,18,01,54,-0.70
2011,11,18,01,55,-0.70
2011,11,18,01,56,-0.80
2011,11,18,01,57,-0.80
2011,11,18,01,58,-0.80
2011,11,18,01,59,-0.80
2011,11,18,02,00,-0.80
2011,11,18,02,01,-0.80
2011,11,18,02,02,-0.80
2011,11,18,02,03,-0.80
2011,11,18,02,04,-0.80
2011,11,18,02,05,-0.80
2011,11,18,02,06,-0.80
2011,11,18,02,07,-0.80
2011,11,18,02,08,-0.80
2011,11,18,02,09,-0.80
2011,11,18,02,10,-0.80
2011,11,18,02,11,-0.80
2011,11,18,02,12,-0.80
2011,11,18,02,13,-0.80
2011,11,18,02,14,-0.80
2011,11,18,02,15,-0.80
2011,11,18,02,16,-0.80
2011,11,18,02,17,-0.80
2011,11,18,02,18,-0.80
2011,11,18,02,19,-0.80
2011,11,18,02,20,-0.80
2011,11,18,02,21,-0.80
2011,11,18,08,00,0.60
2011,11,18,08,01,0.60
2011,11,18,08,02,0.60
2011,11,18,08,03,0.60
2011,11,18,08,04,0.70
2011,11,18,08,05,0.70
2011,11,18,08,06,0.70
2011,11,18,08,07,0.80
2011,11,18,08,08,0.90
2011,11,18,08,09,1.00
2011,11,18,08,10,1.10
2011,11,18,08,11,1.10
2011,11,18,08,12,1.10
2011,11,18,08,13,1.20
2011,11,18,08,14,1.20
2011,11,18,08,15,1.20
2011,11,18,08,16,1.20
2011,11,18,08,17,1.20
2011,11,18,08,18,1.20
2011,11,18,08,19,1.30
2011,11,18,08,20,1.30
2011,11,18,08,21,1.30
2011,11,18,08,22,1.30
2011,11,18,08,23,1.30
2011,11,18,08,24,1.30
2011,11,18,08,25,1.30
2011,11,18,08,26,1.40
2011,11,18,08,27,1.40
2011,11,18,08,28,1.50
2011,11,18,08,29,1.50
2011,11,18,08,30,1.60
2011,11,18,08,31,1.60
2011,11,18,08,32,1.60
2011,11,18,08,33,1.60
2011,11,18,08,34,1.60
2011,11,18,08,35,1.60
2011,11,18,08,36,1.50
2011,11,18,08,37,1.50
2011,11,18,08,38,1.40
2011,11,18,08,39,1.40
2011,11,18,08,40,1.40
2011,11,18,08,41,1.40
2011,11,18,08,42,1.40
2011,11,18,08,43,1.40
2011,11,18,08,44,1.50
2011,11,18,08,45,1.50
2011,11,18,08,46,1.60
2011,11,18,08,47,1.60
2011,11,18,08,48,1.60
2011,11,18,08,49,1.60
2011,11,18,08,50,1.70
2011,11,18,08,51,1.60
2011,11,18,08,52,1.60
2011,11,18,08,53,1.50
2011,11,18,08,54,1.40
2011,11,18,08,55,1.30
2011,11,18,08,56,1.30
2011,11,18,08,57,1.30
2011,11,18,08,58,1.30
2011,11,18,08,59,1.30
2011,11,18,09,00,1.40
2011,11,18,09,01,1.50
2011,11,18,09,02,1.50
2011,11,18,09,03,1.60
2011,11,18,09,04,1.60
2011,11,18,09,05,1.60
2011,11,18,09,06,1.60
2011,11,18,09,07,1.70
2011,11,18,09,08,1.70
2011,11,18,09,09,1.70
2011,11,18,09,10,1.70
2011,11,18,09,11,1.70
2011,11,18,09,12,1.70
2011,11,18,09,13,1.70
2011,11,18,09,14,1.70
2011,11,18,09,15,1.60
2011,11,18,09,16,1.60
2011,11,18,09,17,1.60
2011,11,18,09,18,1.50
2011,11,18,09,19,1.50
2011,11,18,09,20,1.50
2011,11,18,09,21,1.50
2011,11,18,09,22,1.50
2011,11,18,09,23,1.50
2011,11,18,09,24,1.50
2011,11,18,09,25,1.50
2011,11,18,09,26,1.50
2011,11,18,09,27,1.60
2011,11,18,09,28,1.60
2011,11,18,09,29,1.60
2011,11,18,09,30,1.60
2011,11,18,09,31,1.70
2011,11,18,09,32,1.70
2011,11,18,09,33,1.70
2011,11,18,09,34,1.70
2011,11,18,09,35,1.70
2011,11,18,09,36,1.70
2011,11,18,09,37,1.80
2011,11,18,09,38,1.80
2011,11,18,09,39,1.80
2011,11,18,09,40,1.80
2011,11,18,09,41,1.80
2011,11,18,09,42,1.90
2011,11,18,09,43,1.90
2011,11,18,09,44,1.90
2011,11,18,09,45,2.00
2011,11,18,09,46,2.00
2011,11,18,09,47,2.00
2011,11,18,09,48,2.10
2011,11,18,09,49,2.10
2011,11,18,09,50,2.10
2011,11,18,09,51,2.10
2011,11,18,09,52,2.10
2011,11,18,09,53,2.10
2011,11,18,09,54,2.20
2011,11,18,09,55,2.20
2011,11,18,09,56,2.20
2011,11,18,09,57,2.20
2011,11,18,09,58,2.20
2011,11,18,09,59,2.20
2011,11,18,10,00,2.20
2011,11,18,10,01,2.20
2011,11,18,10,02,2.20
2011,11,18,10,03,2.30
2011,11,18,10,04,2.30
2011,11,18,10,05,2.30
2011,11,18,10,06,2.30
2011,11,18,10,07,2.30
2011,11,18,10,08,2.30
2011,11,18,10,09,2.30
2011,11,18,10,10,2.40
2011,11,18,10,11,2.40
2011,11,18,10,12,2.40
2011,11,18,10,13,2.50
2011,11,18,10,14,2.60
2011,11,18,10,15,2.60
2011,11,18,10,16,2.60
2011,11,18,10,17,2.70
2011,11,18,10,18,2.70
2011,11,18,10,19,2.70
2011,11,18,10,20,2.80
2011,11,18,10,21,2.90
2011,11,18,10,22,3.00
2011,11,18,10,23,3.10
2011,11,18,10,24,3.20
2011,11,18,10,25,3.20
2011,11,18,10,26,3.30
2011,11,18,10,27,3.30
2011,11,18,10,28,3.30
2011,11,18,10,29,3.30
2011,11,18,10,30,3.30
2011,11,18,10,31,3.30
2011,11,18,10,32,3.30
2011,11,18,10,33,3.30
2011,11,18,10,34,3.30
2011,11,18,10,35,3.30
2011,11,18,10,36,3.30
2011,11,18,10,37,3.30
2011,11,18,10,38,3.30
2011,11,18,10,39,3.30
2011,11,18,10,40,3.30
2011,11,18,10,41,3.20
2011,11,18,10,42,3.20
2011,11,18,10,43,3.10
2011,11,18,10,44,3.10
2011,11,18,10,45,3.10
2011,11,18,10,46,3.10
2011,11,18,10,47,3.10
2011,11,18,10,48,3.10
2011,11,18,10,49,3.10
2011,11,18,10,50,3.10
2011,11,18,10,51,3.10
2011,11,18,10,52,3.00
2011,11,18,10,53,3.00
2011,11,18,10,54,3.00
2011,11,18,10,55,3.00
2011,11,18,10,56,2.90
2011,11,18,10,57,2.90
2011,11,18,10,58,3.00
2011,11,18,10,59,3.00
2011,11,18,11,00,3.00
2011,11,18,11,01,3.00
2011,11,18,11,02,3.10
2011,11,18,11,03,3.00
2011,11,18,11,04,3.00
2011,11,18,11,05,3.00
2011,11,18,11,06,3.00
2011,11,18,11,07,3.00
2011,11,18,11,08,3.00
2011,11,18,11,09,3.00
2011,11,18,11,10,3.00
2011,11,18,11,11,2.90
2011,11,18,11,12,2.90
2011,11,18,11,13,2.90
2011,11,18,11,14,2.90
2011,11,18,11,15,2.90
2011,11,18,11,16,2.90
2011,11,18,11,17,2.90
2011,11,18,11,18,3.00
2011,11,18,11,19,3.00
2011,11,18,11,20,3.00
2011,11,18,11,21,3.00
2011,11,18,11,22,3.10
2011,11,18,11,23,3.10
2011,11,18,11,24,3.10
2011,11,18,11,25,3.10
2011,11,18,11,26,3.10
2011,11,18,11,27,3.10
2011,11,18,11,28,3.10
2011,11,18,11,29,3.10
2011,11,18,11,30,3.20
2011,11,18,11,31,3.20
2011,11,18,11,32,3.10
2011,11,18,11,33,3.10
2011,11,18,11,34,3.10
2011,11,18,11,35,3.10
2011,11,18,11,36,3.10
2011,11,18,11,37,3.20
2011,11,18,11,38,3.20
2011,11,18,11,39,3.20
2011,11,18,11,40,3.30
2011,11,18,11,41,3.30
2011,11,18,11,42,3.30
2011,11,18,11,43,3.30
2011,11,18,11,44,3.30
2011,11,18,11,45,3.30
2011,11,18,11,46,3.30
2011,11,18,11,47,3.30
2011,11,18,11,48,3.30
2011,11,18,11,49,3.30
2011,11,18,11,50,3.30
2011,11,18,11,51,3.20
2011,11,18,11,52,3.20
2011,11,18,11,53,3.20
2011,11,18,11,54,3.20
2011,11,18,11,55,3.20
2011,11,18,11,56,3.20
2011,11,18,11,57,3.20
2011,11,18,11,58,3.20
2011,11,18,11,59,3.20
2011,11,18,12,00,3.30
2011,11,18,12,01,3.30
2011,11,18,12,02,3.30
2011,11,18,12,03,3.30
2011,11,18,12,04,3.30
2011,11,18,12,05,3.40
2011,11,18,12,06,3.40
2011,11,18,12,07,3.40
2011,11,18,12,08,3.40
2011,11,18,12,09,3.30
2011,11,18,12,10,3.30
2011,11,18,12,11,3.30
2011,11,18,12,12,3.30
2011,11,18,12,13,3.30
2011,11,18,12,14,3.40
2011,11,18,12,15,3.50
2011,11,18,12,16,3.50
2011,11,18,12,17,3.60
2011,11,18,12,18,3.60
2011,11,18,12,19,3.60
2011,11,18,12,20,3.60
2011,11,18,12,21,3.60
2011,11,18,12,22,3.60
2011,11,18,12,23,3.60
2011,11,18,12,24,3.70
2011,11,18,12,25,3.70
2011,11,18,12,26,3.60
2011,11,18,12,27,3.60
2011,11,18,12,28,3.60
2011,11,18,12,29,3.60
2011,11,18,12,30,3.60
2011,11,18,12,31,3.50
2011,11,18,12,32,3.50
2011,11,18,12,33,3.50
2011,11,18,12,34,3.40
2011,11,18,12,35,3.40
2011,11,18,12,36,3.40
2011,11,18,12,37,3.30
2011,11,18,12,38,3.30
2011,11,18,12,39,3.20
2011,11,18,12,40,3.20
2011,11,18,12,41,3.20
2011,11,18,12,42,3.10
2011,11,18,12,43,3.10
2011,11,18,12,44,3.10
2011,11,18,12,45,3.10
2011,11,18,12,46,3.10
2011,11,18,12,47,3.10
2011,11,18,12,48,3.10
2011,11,18,12,49,3.10
2011,11,18,12,50,3.10
2011,11,18,12,51,3.10
2011,11,18,12,52,3.10
2011,11,18,12,53,3.10
2011,11,18,12,54,3.10
2011,11,18,12,55,3.10
2011,11,18,12,56,3.10
2011,11,18,12,57,3.10
2011,11,18,12,58,3.00
2011,11,18,12,59,3.00
2011,11,18,13,00,3.00
2011,11,18,13,01,2.90
2011,11,18,13,02,2.90
2011,11,18,13,03,2.90
2011,11,18,13,04,2.90
2011,11,18,13,05,2.90
2011,11,18,13,06,2.90
2011,11,18,13,07,2.90
2011,11,18,13,08,2.90
2011,11,18,13,09,3.00
2011,11,18,13,10,3.10
2011,11,18,13,11,3.20
2011,11,18,13,12,3.30
2011,11,18,13,13,3.40
2011,11,18,13,14,3.50
2011,11,18,13,15,3.50
2011,11,18,13,16,3.60
2011,11,18,13,17,3.60
2011,11,18,13,18,3.70
2011,11,18,13,19,3.70
2011,11,18,13,20,3.80
2011,11,18,13,21,3.90
2011,11,18,13,22,3.90
2011,11,18,13,23,4.10
2011,11,18,13,24,4.10
2011,11,18,13,25,4.20
2011,11,18,13,26,4.20
2011,11,18,13,27,4.20
2011,11,18,13,28,4.20
2011,11,18,13,29,4.10
2011,11,18,13,30,4.10
2011,11,18,13,31,4.00
2011,11,18,13,32,3.90
2011,11,18,13,33,3.80
2011,11,18,13,34,3.80
2011,11,18,13,35,3.70
2011,11,18,13,36,3.70
2011,11,18,13,37,3.60
2011,11,18,13,38,3.50
2011,11,18,13,39,3.40
2011,11,18,13,40,3.40
2011,11,18,13,41,3.40
2011,11,18,13,42,3.30
2011,11,18,13,43,3.30
2011,11,18,13,44,3.30
2011,11,18,13,45,3.30
2011,11,18,13,46,3.30
2011,11,18,13,47,3.20
2011,11,18,13,48,3.20
2011,11,18,13,49,3.20
2011,11,18,13,50,3.10
2011,11,18,13,51,3.10
2011,11,18,13,52,3.10
2011,11,18,13,53,3.00
2011,11,18,13,54,3.00
2011,11,18,13,55,2.90
2011,11,18,13,56,2.90
2011,11,18,13,57,2.90
2011,11,18,13,58,2.90
2011,11,18,13,59,2.90
2011,11,18,14,00,2.90
2011,11,18,14,01,2.80
2011,11,18,14,02,2.80
2011,11,18,14,03,2.80
2011,11,18,14,04,2.90
2011,11,18,14,05,2.90
2011,11,18,14,06,2.90
2011,11,18,14,07,2.90
2011,11,18,14,08,3.00
2011,11,18,14,09,3.00
2011,11,18,14,10,3.00
2011,11,18,14,11,3.10
2011,11,18,14,12,3.10
2011,11,18,14,13,3.10
2011,11,18,14,14,3.10
2011,11,18,14,15,3.10
2011,11,18,14,16,3.10
2011,11,18,14,17,3.10
2011,11,18,14,18,3.10
2011,11,18,14,19,3.10
2011,11,18,14,20,3.10
2011,11,18,14,21,3.10
2011,11,18,14,22,3.10
2011,11,18,14,23,3.00
2011,11,18,14,24,3.00
2011,11,18,14,25,3.00
2011,11,18,14,26,3.00
2011,11,18,14,27,2.90
2011,11,18,14,28,2.90
2011,11,18,14,29,2.90
2011,11,18,14,30,2.90
2011,11,18,14,31,2.90
2011,11,18,14,32,2.90
2011,11,18,14,33,2.90
2011,11,18,14,34,2.90
2011,11,18,14,35,2.80
2011,11,18,14,36,2.80
2011,11,18,14,37,2.80
2011,11,18,14,38,2.80
2011,11,18,14,39,2.80
2011,11,18,14,40,2.80
2011,11,18,14,41,2.80
2011,11,18,14,42,2.80
2011,11,18,14,43,2.80
2011,11,18,14,44,2.80
2011,11,18,14,45,2.80
2011,11,18,14,46,2.80
2011,11,18,14,47,2.80
2011,11,18,14,48,2.80
2011,11,18,14,49,2.80
2011,11,18,14,50,2.90
2011,11,18,14,51,2.90
2011,11,18,14,52,2.90
2011,11,18,14,53,2.90
2011,11,18,14,54,2.90
2011,11,18,14,55,2.90
2011,11,18,14,56,2.90
2011,11,18,14,57,2.90
2011,11,18,14,58,2.90
2011,11,18,14,59,2.90
2011,11,18,15,00,2.90
2011,11,18,15,01,2.90
2011,11,18,15,02,2.90
2011,11,18,15,03,2.90
2011,11,18,15,04,2.90
2011,11,18,15,05,2.80
2011,11,18,15,06,2.80
2011,11,18,15,07,2.80
2011,11,18,15,08,2.80
2011,11,18,15,09,2.80
2011,11,18,15,10,2.70
2011,11,18,15,11,2.70
2011,11,18,15,12,2.60
2011,11,18,15,13,2.50
2011,11,18,15,14,2.50
2011,11,18,15,15,2.40
2011,11,18,15,16,2.40
2011,11,18,15,17,2.30
2011,11,18,15,18,2.30
2011,11,18,15,19,2.20
2011,11,18,15,20,2.20
2011,11,18,15,21,2.20
2011,11,18,15,22,2.20
2011,11,18,15,23,2.10
2011,11,18,15,24,2.10
2011,11,18,15,25,2.10
2011,11,18,15,26,2.00
2011,11,18,15,27,2.00
2011,11,18,15,28,2.00
2011,11,18,15,29,2.00
2011,11,18,15,30,2.00
2011,11,18,15,31,2.00
2011,11,18,15,32,2.00
2011,11,18,15,33,2.00
2011,11,18,15,34,1.90
2011,11,18,15,35,1.90
2011,11,18,15,36,1.90
2011,11,18,15,37,1.90
2011,11,18,15,38,1.90
2011,11,18,15,39,1.90
2011,11,18,15,40,1.90
2011,11,18,15,41,1.90
2011,11,18,15,42,1.80
2011,11,18,15,43,1.80
2011,11,18,15,44,1.80
2011,11,18,15,45,1.80
2011,11,18,15,46,1.80
2011,11,18,15,47,1.80
2011,11,18,15,48,1.80
2011,11,18,15,49,1.80
2011,11,18,15,50,1.80
2011,11,18,15,51,1.80
2011,11,18,15,52,1.80
2011,11,18,15,53,1.80
2011,11,18,15,54,1.80
2011,11,18,15,55,1.80
2011,11,18,15,56,1.80
2011,11,18,15,57,1.80
2011,11,18,15,58,1.70
2011,11,18,15,59,1.70
2011,11,18,16,00,1.70
2011,11,18,16,01,1.70
2011,11,18,16,02,1.60
2011,11,18,16,03,1.60
2011,11,18,16,04,1.60
2011,11,18,16,05,1.60
2011,11,18,16,06,1.50
2011,11,18,16,07,1.50
2011,11,18,16,08,1.50
2011,11,18,16,09,1.50
2011,11,18,16,10,1.40
2011,11,18,16,11,1.40
2011,11,18,16,12,1.40
2011,11,18,16,13,1.50
2011,11,18,16,14,1.50
2011,11,18,16,15,1.50
2011,11,18,16,16,1.60
2011,11,18,16,17,1.60
2011,11,18,16,18,1.60
2011,11,18,16,19,1.60
2011,11,18,16,20,1.60
2011,11,18,16,21,1.60
2011,11,18,16,22,1.60
2011,11,18,16,23,1.60
2011,11,18,16,24,1.60
2011,11,18,16,25,1.60
2011,11,18,16,26,1.60
2011,11,18,16,27,1.70
2011,11,18,16,28,1.70
2011,11,18,16,29,1.70
2011,11,18,16,30,1.70
2011,11,18,16,31,1.70
2011,11,18,16,32,1.70
2011,11,18,16,33,1.70
2011,11,18,16,34,1.80
2011,11,18,16,35,1.80
2011,11,18,16,36,1.80
2011,11,18,16,37,1.80
2011,11,18,16,38,1.80
2011,11,18,16,39,1.80
2011,11,18,16,40,1.80
2011,11,18,16,41,1.80
2011,11,18,16,42,1.80
2011,11,18,16,43,1.80
2011,11,18,16,44,1.80
2011,11,18,16,45,1.80
2011,11,18,16,46,1.80
2011,11,18,16,47,1.80
2011,11,18,16,48,1.80
2011,11,18,16,49,1.80
2011,11,18,16,50,1.80
2011,11,18,16,51,1.80
2011,11,18,16,52,1.80
2011,11,18,16,53,1.80
2011,11,18,16,54,1.80
2011,11,18,16,55,1.80
2011,11,18,16,56,1.80
2011,11,18,16,57,1.80
2011,11,18,16,58,1.70
2011,11,18,16,59,1.70
2011,11,18,17,00,1.70
2011,11,18,17,01,1.70
2011,11,18,17,02,1.70
2011,11,18,17,03,1.70
2011,11,18,17,04,1.60
2011,11,18,17,05,1.60
2011,11,18,17,06,1.60
2011,11,18,17,07,1.60
2011,11,18,17,08,1.50
2011,11,18,17,09,1.50
2011,11,18,17,10,1.50
2011,11,18,17,11,1.40
2011,11,18,17,12,1.40
2011,11,18,17,13,1.30
2011,11,18,17,14,1.30
2011,11,18,17,15,1.30
2011,11,18,17,16,1.30
2011,11,18,17,17,1.30
2011,11,18,17,18,1.30
2011,11,18,17,19,1.30
2011,11,18,17,20,1.30
2011,11,18,17,21,1.30
2011,11,18,17,22,1.30
2011,11,18,17,23,1.30
2011,11,18,17,24,1.30
2011,11,18,17,25,1.30
2011,11,18,17,26,1.20
2011,11,18,17,27,1.20
2011,11,18,17,28,1.20
2011,11,18,17,29,1.10
2011,11,18,17,30,1.10
2011,11,18,17,31,1.10
2011,11,18,17,32,1.10
2011,11,18,17,33,1.10
2011,11,18,17,34,1.00
2011,11,18,17,35,1.00
2011,11,18,17,36,1.00
2011,11,18,17,37,0.90
2011,11,18,17,38,0.90
2011,11,18,17,39,0.90
2011,11,18,17,40,0.90
2011,11,18,17,41,0.80
2011,11,18,17,42,0.80
2011,11,18,17,43,0.80
2011,11,18,17,44,0.80
2011,11,18,17,45,0.80
2011,11,18,17,46,0.70
2011,11,18,17,47,0.70
2011,11,18,17,48,0.70
2011,11,18,17,49,0.70
2011,11,18,17,50,0.60
2011,11,18,17,51,0.60
2011,11,18,17,52,0.60
2011,11,18,17,53,0.60
2011,11,18,17,54,0.60
2011,11,18,17,55,0.60
2011,11,18,17,56,0.50
2011,11,18,17,57,0.50
2011,11,18,17,58,0.50
2011,11,18,17,59,0.40
2011,11,18,18,00,0.40
2011,11,18,18,01,0.40
2011,11,18,18,02,0.30
2011,11,18,18,03,0.30
2011,11,18,18,04,0.30
2011,11,18,18,05,0.30
2011,11,18,18,06,0.20
2011,11,18,18,07,0.20
2011,11,18,18,08,0.20
2011,11,18,18,09,0.20
2011,11,18,18,10,0.20
2011,11,18,18,11,0.20
2011,11,18,18,12,0.10
2011,11,18,18,13,0.20
2011,11,18,18,14,0.20
2011,11,18,18,15,0.20
2011,11,18,18,16,0.20
2011,11,18,18,17,0.10
2011,11,18,18,18,0.10
2011,11,18,18,19,0.10
2011,11,18,18,20,0.10
2011,11,18,18,21,0.10
2011,11,18,18,22,0.10
2011,11,18,18,23,0.00
2011,11,18,18,24,0.00
2011,11,18,18,25,0.00
2011,11,18,18,26,0.00
2011,11,18,18,27,0.00
2011,11,18,18,28,0.00
2011,11,18,18,29,-0.10
2011,11,18,18,30,-0.10
2011,11,18,18,31,-0.10
2011,11,18,18,32,-0.10
2011,11,18,18,33,-0.10
2011,11,18,18,34,-0.10
2011,11,18,18,35,-0.10
2011,11,18,18,36,-0.10
2011,11,18,18,37,-0.10
2011,11,18,18,38,-0.20
2011,11,18,18,39,-0.20
2011,11,18,18,40,-0.20
2011,11,18,18,41,-0.20
2011,11,18,18,42,-0.20
2011,11,18,18,43,-0.20
2011,11,18,18,44,-0.20
2011,11,18,18,45,-0.20
2011,11,18,18,46,-0.20
2011,11,18,18,47,-0.20
2011,11,18,18,48,-0.20
2011,11,18,18,49,-0.20
2011,11,18,18,50,-0.20
2011,11,18,18,51,-0.20
2011,11,18,18,52,-0.20
2011,11,18,18,53,-0.20
2011,11,18,18,54,-0.20
2011,11,18,18,55,-0.20
2011,11,18,18,56,-0.20
2011,11,18,18,57,-0.20
2011,11,18,18,58,-0.20
2011,11,18,18,59,-0.10
2011,11,18,19,00,-0.10
2011,11,18,19,01,-0.10
2011,11,18,19,02,-0.10
2011,11,18,19,03,-0.10
2011,11,18,19,04,-0.10
2011,11,18,19,05,-0.10
2011,11,18,19,06,-0.10
2011,11,18,19,07,-0.10
2011,11,18,19,08,-0.10
2011,11,18,19,09,-0.10
2011,11,18,19,10,-0.10
2011,11,18,19,11,-0.10
2011,11,18,19,12,-0.10
2011,11,18,19,13,-0.10
2011,11,18,19,14,0.00
2011,11,18,19,15,0.00
2011,11,18,19,16,0.00
2011,11,18,19,17,0.00
2011,11,18,19,18,0.00
2011,11,18,19,19,0.00
2011,11,18,19,20,0.10
2011,11,18,19,21,0.10
2011,11,18,19,22,0.10
2011,11,18,19,23,0.10
2011,11,18,19,24,0.20
2011,11,18,19,25,0.20
2011,11,18,19,26,0.30
2011,11,18,19,27,0.30
2011,11,18,19,28,0.30
2011,11,18,19,29,0.30
2011,11,18,19,30,0.40
2011,11,18,19,31,0.40
2011,11,18,19,32,0.40
2011,11,18,19,33,0.40
2011,11,18,19,34,0.40
2011,11,18,19,35,0.40
2011,11,18,19,36,0.40
2011,11,18,19,37,0.40
2011,11,18,19,38,0.40
2011,11,18,19,39,0.40
2011,11,18,19,40,0.40
2011,11,18,19,41,0.40
2011,11,18,19,42,0.40
2011,11,18,19,43,0.40
2011,11,18,19,44,0.40
2011,11,18,19,45,0.40
2011,11,18,19,46,0.40
2011,11,18,19,47,0.40
2011,11,18,19,48,0.40
2011,11,18,19,49,0.40
2011,11,18,19,50,0.40
2011,11,18,19,51,0.40
2011,11,18,19,52,0.40
2011,11,18,19,53,0.40
2011,11,18,19,54,0.40
2011,11,18,19,55,0.40
2011,11,18,19,56,0.40
2011,11,18,19,57,0.40
2011,11,18,19,58,0.40
2011,11,18,19,59,0.40
2011,11,18,20,00,0.40
2011,11,18,20,01,0.40
2011,11,18,20,02,0.40
2011,11,18,20,03,0.40
2011,11,18,20,04,0.40
2011,11,18,20,05,0.40
2011,11,18,20,06,0.40
2011,11,18,20,07,0.40
2011,11,18,20,08,0.40
2011,11,18,20,09,0.40
2011,11,18,20,10,0.40
2011,11,18,20,11,0.40
2011,11,18,20,12,0.40
2011,11,18,20,13,0.40
2011,11,18,20,14,0.40
2011,11,18,20,15,0.40
2011,11,18,20,16,0.40
2011,11,18,20,17,0.30
2011,11,18,20,18,0.30
2011,11,18,20,19,0.30
2011,11,18,20,20,0.30
2011,11,18,20,21,0.30
2011,11,18,20,22,0.20
2011,11,18,20,23,0.20
2011,11,18,20,24,0.20
2011,11,18,20,25,0.20
2011,11,18,20,26,0.20
2011,11,18,20,27,0.20
2011,11,18,20,28,0.20
2011,11,18,20,29,0.20
2011,11,18,20,30,0.10
2011,11,18,20,31,0.10
2011,11,18,20,32,0.10
2011,11,18,20,33,0.10
2011,11,18,20,34,0.10
2011,11,18,20,35,0.00
2011,11,18,20,36,0.00
2011,11,18,20,37,0.00
2011,11,18,20,38,-0.10
2011,11,18,20,39,-0.10
2011,11,18,20,40,-0.10
2011,11,18,20,41,-0.10
2011,11,18,20,42,-0.10
2011,11,18,20,43,-0.20
2011,11,18,20,44,-0.20
2011,11,18,20,45,-0.20
2011,11,18,20,46,-0.20
2011,11,18,20,47,-0.20
2011,11,18,20,48,-0.20
2011,11,18,20,49,-0.30
2011,11,18,20,50,-0.30
2011,11,18,20,51,-0.30
2011,11,18,20,52,-0.30
2011,11,18,20,53,-0.30
2011,11,18,20,54,-0.30
2011,11,18,20,55,-0.30
2011,11,18,20,56,-0.30
2011,11,18,20,57,-0.30
2011,11,18,20,58,-0.30
2011,11,18,20,59,-0.40
2011,11,18,21,00,-0.40
2011,11,18,21,01,-0.40
2011,11,18,21,02,-0.40
2011,11,18,21,03,-0.40
2011,11,18,21,04,-0.50
2011,11,18,21,05,-0.50
2011,11,18,21,06,-0.50
2011,11,18,21,07,-0.50
2011,11,18,21,08,-0.50
2011,11,18,21,09,-0.50
2011,11,18,21,10,-0.50
2011,11,18,21,11,-0.50
2011,11,18,21,12,-0.40
2011,11,18,21,13,-0.40
2011,11,18,21,14,-0.40
2011,11,18,21,15,-0.40
2011,11,18,21,16,-0.30
2011,11,18,21,17,-0.30
2011,11,18,21,18,-0.30
2011,11,18,21,19,-0.30
2011,11,18,21,20,-0.30
2011,11,18,21,21,-0.30
2011,11,18,21,22,-0.30
2011,11,18,21,23,-0.20
2011,11,18,21,24,-0.20
2011,11,18,21,25,-0.20
2011,11,18,21,26,-0.20
2011,11,18,21,27,-0.20
2011,11,18,21,28,-0.20
2011,11,18,21,29,-0.20
2011,11,18,21,30,-0.20
2011,11,18,21,31,-0.20
2011,11,18,21,32,-0.20
2011,11,18,21,33,-0.10
2011,11,18,21,34,-0.10
2011,11,18,21,35,-0.10
2011,11,18,21,36,-0.10
2011,11,18,21,37,-0.10
2011,11,18,21,38,-0.10
2011,11,18,21,39,-0.10
2011,11,18,21,40,-0.10
2011,11,18,21,41,-0.10
2011,11,18,21,42,-0.10
2011,11,18,21,43,-0.10
2011,11,18,21,44,-0.10
2011,11,18,21,45,-0.10
2011,11,18,21,46,-0.10
2011,11,18,21,47,-0.10
2011,11,18,21,48,-0.10
2011,11,18,21,49,-0.10
2011,11,18,21,50,-0.10
2011,11,18,21,51,-0.10
2011,11,18,21,52,-0.10
2011,11,18,21,53,-0.10
2011,11,18,21,54,-0.10
2011,11,18,21,55,-0.10
2011,11,18,21,56,-0.10
2011,11,18,21,57,-0.10
2011,11,18,21,58,-0.10
2011,11,18,21,59,0.00
2011,11,18,22,00,0.00
2011,11,18,22,01,0.00
2011,11,18,22,02,0.00
2011,11,18,22,03,0.00
2011,11,18,22,04,0.00
2011,11,18,22,05,0.00
2011,11,18,22,06,0.00
2011,11,18,22,07,0.00
2011,11,18,22,08,0.00
2011,11,18,22,09,0.00
2011,11,18,22,10,0.00
2011,11,18,22,11,0.00
2011,11,18,22,12,0.00
2011,11,18,22,13,0.00
2011,11,18,22,14,0.00
2011,11,18,22,15,0.00
2011,11,18,22,16,0.00
2011,11,18,22,17,-0.10
2011,11,18,22,18,-0.10
2011,11,18,22,19,-0.10
2011,11,18,22,20,-0.10
2011,11,18,22,21,-0.10
2011,11,18,22,22,0.00
2011,11,18,22,23,0.00
2011,11,18,22,24,0.00
2011,11,18,22,25,0.00
2011,11,18,22,26,0.00
2011,11,18,22,27,0.00
2011,11,18,22,28,0.00
2011,11,18,22,29,0.00
2011,11,18,22,30,0.00
2011,11,18,22,31,0.00
2011,11,18,22,32,-0.10
2011,11,18,22,33,-0.10
2011,11,18,22,34,-0.10
2011,11,18,22,35,-0.10
2011,11,18,22,36,-0.10
2011,11,18,22,37,-0.10
2011,11,18,22,38,-0.10
2011,11,18,22,39,-0.20
2011,11,18,22,40,-0.20
2011,11,18,22,41,-0.20
2011,11,18,22,42,-0.20
2011,11,18,22,43,-0.20
2011,11,18,22,44,-0.20
2011,11,18,22,45,-0.20
2011,11,18,22,46,-0.20
2011,11,18,22,47,-0.20
2011,11,18,22,48,-0.20
2011,11,18,22,49,-0.20
2011,11,18,22,50,-0.20
2011,11,18,22,51,-0.20
2011,11,18,22,52,-0.20
2011,11,18,22,53,-0.20
2011,11,18,22,54,-0.20
2011,11,18,22,55,-0.20
2011,11,18,22,56,-0.10
2011,11,18,22,57,-0.10
2011,11,18,22,58,-0.10
2011,11,18,22,59,-0.10
2011,11,18,23,00,0.00
2011,11,18,23,01,0.00
2011,11,18,23,02,0.00
2011,11,18,23,03,0.00
2011,11,18,23,04,0.10
2011,11,18,23,05,0.10
2011,11,18,23,06,0.10
2011,11,18,23,07,0.10
2011,11,18,23,08,0.10
2011,11,18,23,09,0.20
2011,11,18,23,10,0.20
2011,11,18,23,11,0.20
2011,11,18,23,12,0.20
2011,11,18,23,13,0.20
2011,11,18,23,14,0.20
2011,11,18,23,15,0.30
2011,11,18,23,16,0.30
2011,11,18,23,17,0.30
2011,11,18,23,18,0.40
2011,11,18,23,19,0.40
2011,11,18,23,20,0.40
2011,11,18,23,21,0.40
2011,11,18,23,22,0.50
2011,11,18,23,23,0.50
2011,11,18,23,24,0.60
2011,11,18,23,25,0.70
2011,11,18,23,26,0.70
2011,11,18,23,27,0.70
2011,11,18,23,28,0.70
2011,11,18,23,29,0.70
2011,11,18,23,30,0.70
2011,11,18,23,31,0.70
2011,11,18,23,32,0.80
2011,11,18,23,33,0.80
2011,11,18,23,34,0.80